Impacts METAR Board
IDs:

KFLL - Ft Lauderdale-Hollyw, FL, US

Updated at: 1500 UTC 26 Apr 2018
Potential Impact None Slight Moderate High
Time 26/03Z 26/04Z 26/05Z 26/06Z 26/07Z 26/08Z 26/09Z 26/10Z 26/11Z 26/12Z 26/13Z 26/14Z 26/15Z
Temp75 72 71 70 69 68 67 66 66 68 71 74 77
Dewpt63 64 64 63 62 63 62 62 63 63 63 63 64
Altim29.93 29.94 29.94 29.93 29.92 29.92 29.92 29.92 29.93 29.94 29.95 29.96 29.97
VIS10 10 10 10 10 10 10 10 10 10 10 10 10
CIG-- -- -- -- -- -- -- -- -- -- -- -- --
CoverFEWCLRCLRCLRCLRCLRCLRCLRFEWCLRCLRCLRFEW
FltCatVFRVFRVFRVFRVFRVFRVFRVFRVFRVFRVFRVFRVFR
WX--------------------------
WDir290280290290280290300300310330310320260
WSpd8 7 8 5 8 5 5 4 4 5 4 6 5
WGst16 -- -- -- -- -- -- -- -- -- -- -- --
Raw hourly METARs
KFLL 260253Z 29008G16KT 10SM FEW025 24/17 A2993 RMK AO2 SLP136 T02390172 53022
KFLL 260353Z 28007KT 10SM CLR 22/18 A2994 RMK AO2 SLP139 T02220178
KFLL 260453Z 29008KT 10SM CLR 22/18 A2994 RMK AO2 SLP139 T02170178 402890206
KFLL 260553Z 29005KT 10SM CLR 21/17 A2993 RMK AO2 SLP136 T02110172 10256 20211 50000
KFLL 260653Z 28008KT 10SM CLR 21/17 A2992 RMK AO2 SLP132 T02060167
KFLL 260753Z 29005KT 10SM CLR 20/17 A2992 RMK AO2 SLP132 T02000172
KFLL 260853Z 30005KT 10SM CLR 19/17 A2992 RMK AO2 SLP130 T01940167 56006
KFLL 260953Z 30004KT 10SM CLR 19/17 A2992 RMK AO2 SLP130 T01890167
KFLL 261053Z 31004KT 10SM FEW035 19/17 A2993 RMK AO2 SLP133 T01890172
KFLL 261153Z 33005KT 10SM CLR 20/17 A2994 RMK AO2 SLP137 T02000172 10211 20189 53007
KFLL 261253Z 31004KT 10SM CLR 22/17 A2995 RMK AO2 SLP141 T02170172
KFLL 261353Z 32006KT 10SM CLR 23/17 A2996 RMK AO2 SLP145 T02330172
KFLL 261453Z 26005KT 10SM FEW010 25/18 A2997 RMK AO2 SLP149 T02500178 53012



Page loaded:  15:26 UTC  |   08:26 AM Pacific  |   09:26 AM Mountain  |   10:26 AM Central  |   11:26 AM Eastern

 

ADVISORIES

FORECASTS

FORECASTS

OBSERVATIONS

USER TOOLS

ABOUT US